Find Starlink 4187

NORAD ID: 52850 Int'l Des: 2022-062 Owner: SPXS Country: US Constellation: starlink operational
LEOCIRCULAR

当前视图

正在加载3D地球...

About Starlink 4187

Starlink 4187 (NORAD 52850) is a starlink constellation satellite (v1.5) launched Jun 17, 2022 by SPXS of US. It operates in LEO, CIRCULAR orbit with a mass of 297.00 kg.

即将过境

Passes for default location (London). Set your location on the main map for personalized predictions.

高度历史

Loading altitude history...

两行轨道根数

1 52850U 22062W 26248.50032094 .00000306 00000-0 21632-4 0 9994
2 52850 53.1597 298.7222 0001128 73.6431 286.4695 15.31708310233041
Epoch: Sep 5, 2026 • Age: 6 hours

当前状态

高度 488.2 km
远地点 / 近地点 N/A
速度 7.62 km/s
星下点 -48.66°S, 76.23°W
发射日期 Jun 17, 2022
运行时间 4.2 years
类型 internet

技术详情

分类 Payload
质量 297.00 kg
干质量 275.00 kg
总质量 297.00 kg
长度 0.20 m
直径 2.80 m
跨度 9.00 m
形状 Box + pan
制造商 SPXS
平台类型 Starlink
阶段状态 In Orbit
所有者/国家 SPXS/US

Most Searched